This is the latest recevied weather packets stored in our database for station/object IZ1UQG-N2. If no packets are shown the sender has not sent any weather packets the latest 10 day(s).
| Time | Temp. | Humidity | Pressure | Rain* | Wind** | Luminosity | Snow |
|---|---|---|---|---|---|---|---|
| 1787614181 | 17.78° C | 92% | 1011.8 hPa | 53.59 mm | - | 0 W/m² | - |
| 1787614120 | 17.22° C | 92% | 1011.9 hPa | 54.1 mm | - | 0 W/m² | - |
| 1787614060 | 17.22° C | 92% | 1012.1 hPa | 54.86 mm | - | 0 W/m² | - |
| 1787614000 | 17.22° C | 92% | 1012.1 hPa | 54.61 mm | - | 0 W/m² | - |
| 1787613940 | 17.22° C | 92% | 1012.1 hPa | 55.12 mm | - | 0 W/m² | - |
| 1787613881 | 17.22° C | 92% | 1012.2 hPa | 55.12 mm | - | 0 W/m² | - |
| 1787613821 | 17.78° C | 92% | 1012.2 hPa | 55.37 mm | - | 0 W/m² | - |
| 1787613761 | 17.22° C | 92% | 1012.3 hPa | 55.37 mm | - | 0 W/m² | - |
| 1787613700 | 17.78° C | 92% | 1012.2 hPa | 55.37 mm | - | 0 W/m² | - |
| 1787613640 | 17.78° C | 92% | 1012.4 hPa | 55.37 mm | - | 0 W/m² | - |
| 1787613580 | 17.78° C | 92% | 1012.4 hPa | 55.37 mm | - | 0 W/m² | - |
| 1787613520 | 17.78° C | 92% | 1012.5 hPa | 55.37 mm | - | 0 W/m² | - |
| 1787613460 | 17.78° C | 92% | 1012.4 hPa | 55.63 mm | - | 0 W/m² | - |
| 1787613399 | 17.78° C | 91% | 1012.4 hPa | 56.13 mm | - | 0 W/m² | - |
| 1787613339 | 17.78° C | 91% | 1012.4 hPa | 56.13 mm | - | 0 W/m² | - |
| 1787613279 | 17.78° C | 91% | 1012.5 hPa | 55.88 mm | - | 0 W/m² | - |
| 1787613062 | 17.78° C | 92% | 1012.7 hPa | 56.9 mm | - | 0 W/m² | - |
| 1787613003 | 17.78° C | 92% | 1012.7 hPa | 56.39 mm | - | 0 W/m² | - |
| 1787612943 | 17.78° C | 91% | 1012.7 hPa | 56.13 mm | - | 0 W/m² | - |
| 1787612883 | 17.78° C | 91% | 1012.9 hPa | 55.37 mm | - | 0 W/m² | - |
| 1787612823 | 17.78° C | 91% | 1012.8 hPa | 55.37 mm | - | 0 W/m² | - |
| 1787612763 | 17.78° C | 91% | 1012.7 hPa | 55.12 mm | - | 0 W/m² | - |
| 1787612703 | 17.78° C | 91% | 1012.7 hPa | 54.61 mm | - | 0 W/m² | - |
| 1787612642 | 17.78° C | 91% | 1012.5 hPa | 54.36 mm | - | 0 W/m² | - |
| 1787612584 | 18.33° C | 90% | 1012.4 hPa | 53.59 mm | - | 0 W/m² | - |
* Rain latest hour (hover to see other rain measurements)
** Current wind speed in m/s (hover to see current wind gust speed)